Location: Del Amo
(33.8464°N, 118.2104°W)
Time: 08:42:55
(UTC+00:00)

Vanguard 3 - Pass Details

Date: 20 September 2024
Orbit: 507 x 3223 km, 33.3° (Epoch: 09 October)

Event Time Altitude Azimuth Distance (km) Brightness Sun altitude
Rises 16:21:37 0° 275° (W) 6,914 11.4 31.9°
Reaches altitude 10° 16:26:00 10° 275° (W) 6,043 11.2 32.7°
Maximum altitude 16:46:06 86° 190° (S) 3,048 10.7 36.5°
Drops below altitude 10° 17:01:43 10° 103° (ESE) 4,882 12.2 39.3°
Sets 17:04:51 0° 103° (ESE) 5,591 12.2 39.8°
